[[{"header":{"parameterUnit":"m.s-1","parameterCategory":1,"la1":30.2991,"la2":30.254,"lo1":-89.0895,"lo2":-89.0444,"dy":0.0017,"dx":0.0017,"nx":28,"ny":28,"refTime":"2024-08-22T09:00:00:Z","depth":0,"parameterNumber":2,"parameterNumberName":"U-component_of_WINDS"},"data":[0,0,0,0,0,0,0,0,0,0,0,0,0,0,0,0,0,0,0,0,0,0,0,0,0,0,0,0,0,0,0,0,0,0,0,0,0,0,0,0,0,0,0,0,0,0,0,0,0,0,0,0,0,0,0,0,0,0,-5.7406,-5.7406,0,-5.7424,-5.7424,-5.7424,-5.7298,-5.7295,-5.7291,-5.7288,-5.7307,-5.731,-5.7314,0,0,0,0,0,0,0,0,0,0,0,0,0,-5.7264,-5.7267,-5.7406,-5.7406,-5.7406,-5.7424,-5.7424,-5.7424,-5.7299,-5.7295,-5.729,-5.7286,-5.7306,-5.731,-5.7315,0,0,0,0,0,0,0,0,0,0,0,0,0,-5.7308,-5.7268,-5.7405,-5.7346,-5.734,-5.7424,-5.7424,-5.7424,-5.73,-5.7295,-5.7289,-5.7284,-5.7304,-5.731,-5.7315,-5.7457,0,0,-5.7333,-5.7335,0,0,0,0,0,0,0,0,-5.7306,-5.7313,-5.7354,-5.735,-5.7344,-5.7353,-5.7381,-5.7435,-5.7301,-5.7315,-5.7288,-5.7282,-5.7327,-5.733,-5.7345,-5.7458,-5.7458,-5.7333,-5.7337,-5.7339,-5.7341,0,0,0,0,0,0,0,-5.7303,-5.7312,-5.7413,-5.7355,-5.7349,-5.7318,-5.7319,-5.739,-5.7351,-5.7314,-5.7305,-5.7309,-5.7323,-5.734,-5.7345,-5.7459,-5.7333,-5.7338,-5.7342,-5.7344,-5.7689,-5.7695,0,0,0,0,0,0,-5.7308,-5.731,-5.7412,-5.7413,-5.7311,-5.7325,-5.7326,-5.7356,-5.7349,-5.7343,-5.7313,-5.7303,-5.7333,-5.7338,-5.7345,-5.751,-5.7339,-5.7344,-5.7348,-5.7684,-5.7691,-5.7697,0,0,0,0,0,0,-5.7305,-5.7318,-5.7411,-5.7359,-5.7369,-5.7333,-5.7368,-5.7359,-5.7376,-5.7349,-5.7341,-5.7338,-5.7329,-5.7337,-5.743,-5.7509,-5.7347,-5.7352,-5.7677,-5.7686,-5.7694,-5.7842,0,0,0,0,0,0,-5.7301,-5.7318,-5.7371,-5.7361,-5.7372,-5.7496,-5.7373,-5.7363,-5.7386,-5.7373,-5.737,-5.7365,-5.7325,-5.7422,-5.7436,-5.7514,-5.7357,-5.7669,-5.7681,-5.7691,-5.783,-5.7855,-5.7876,0,0,0,0,0,-5.7297,-5.7411,-5.7374,-5.7387,-5.7437,-5.7501,-5.7507,-5.7459,-5.7393,-5.7446,-5.7429,-5.7365,-5.7499,-5.7433,-5.7447,-5.7528,-5.7664,-5.7678,-5.769,-5.782,-5.785,-5.7876,0,0,0,0,0,0,-5.743,-5.7409,-5.7367,-5.7482,-5.7495,-5.748,-5.7545,-5.7493,-5.7524,-5.751,-5.745,-5.7451,-5.7554,-5.7551,-5.7478,-5.7665,-5.757,-5.7586,-5.7664,-5.7692,-5.7715,-5.7713,-5.7361,0,0,0,0,0,-5.7473,-5.7526,-5.7505,-5.7609,-5.7617,-5.7581,-5.7606,-5.7569,-5.7579,-5.7584,-5.7573,-5.7586,-5.7631,-5.7661,-5.7701,-5.783,-5.7828,-5.7893,-5.7916,-5.7935,-5.7949,-5.8018,-5.8047,-5.7739,-5.7739,-5.7739,0,0,-5.7562,-5.7557,-5.7594,-5.7636,-5.764,-5.7697,-5.7586,-5.765,-5.7692,-5.7593,-5.768,-5.7674,-5.7684,-5.7796,-5.7845,-5.7796,-5.8034,-5.7952,-5.7967,-5.7971,-5.8034,-5.8063,-5.8089,-5.7748,-5.7747,-5.7745,0,0,-5.7753,-5.7755,-5.7841,-5.7849,-5.7859,-5.7834,-5.7855,-5.7849,-5.7841,-5.7928,-5.7856,-5.7905,-5.7983,-5.7994,-5.8009,-5.8208,-5.815,-5.8222,-5.8342,-5.841,-5.8434,-5.8455,-5.8526,-5.8552,-5.8237,-5.8238,-5.8238,0,-5.7862,-5.7944,-5.7893,-5.7962,-5.7983,-5.7898,-5.7986,-5.7996,-5.8018,-5.8035,-5.798,-5.8078,-5.8079,-5.8192,-5.8241,-5.8256,-5.8279,-5.8221,-5.8435,-5.8455,-5.8474,-5.8541,-5.8568,-5.8246,-5.8245,-5.8244,-5.8244,0,-5.8078,-5.8137,-5.8206,-5.823,-5.8259,-5.8337,-5.8298,-5.8333,-5.8295,-5.8276,-5.8367,-5.8365,-5.8404,-5.8428,-5.839,-5.8537,-5.8507,-5.8445,-5.8347,-5.8513,-5.8575,-5.86,-5.8259,-5.8256,-5.8253,-5.8251,0,0,-5.8351,-5.8347,-5.8373,-5.8384,-5.8389,-5.8434,-5.8509,-5.8547,-5.8579,-5.8598,-5.866,-5.873,-5.8673,-5.8691,-5.8654,-5.8714,-5.8871,-5.8644,-5.8644,-5.8686,-5.9033,-5.9079,-5.911,-5.8834,-5.8839,-5.8842,-5.9032,0,-5.8537,-5.8665,-5.8622,-5.8752,-5.8806,-5.8727,-5.8793,-5.8804,-5.879,-5.8834,-5.8818,-5.8868,-5.8789,-5.88,-5.8856,-5.8841,-5.894,-5.8826,-5.8891,-5.8894,-5.889,-5.9142,-5.919,-5.9369,-5.9056,-5.906,-5.9063,0,-5.877,-5.8799,-5.8936,-5.8933,-5.8954,-5.9014,-5.9046,-5.9089,-5.9101,-5.9086,-5.9108,-5.9059,-5.9134,-5.9038,-5.9141,-5.9064,-5.9089,-5.9086,-5.9092,-5.9095,-5.8988,-5.9151,-5.9425,-5.9452,-5.9101,-5.9098,-5.9095,0,-5.8955,-5.9029,-5.9119,-5.9131,-5.9131,-5.9175,-5.9177,-5.9183,-5.9209,-5.9238,-5.9254,-5.9292,-5.9312,-5.9343,-5.9306,-5.9239,-5.9414,-5.9315,-5.9404,-5.9405,-5.9443,-5.9441,-5.9724,-5.9461,-5.9461,-5.946,-5.9459,0,-5.9167,-5.9253,-5.9203,-5.9259,-5.9354,-5.9304,-5.9399,-5.9393,-5.94,-5.9453,-5.9388,-5.944,-5.9388,-5.9436,-5.9408,-5.9498,-5.9507,-5.9498,-5.9489,-5.9503,-5.9504,-5.9517,-5.9503,-5.9467,-5.9465,-5.9464,-5.9463,0,-5.9388,-5.9358,-5.9452,-5.9445,-5.9445,-5.9516,-5.9509,-5.9561,-5.9543,-5.9612,-5.9626,-5.9597,-5.965,-5.9617,-5.967,-5.9652,-5.9769,-5.9743,-5.9765,-5.9757,-5.9848,-5.984,-6.0149,-6.0187,-5.99,-5.9903,-5.9906,0,-5.9524,-5.9589,-5.9589,-5.9621,-5.9627,-5.9679,-5.9705,-5.966,-5.9691,-5.971,-5.976,-5.9808,-5.9843,-5.9931,-5.9916,-5.9957,-5.9931,-6.0037,-5.9937,-5.995,-5.9932,-5.9929,-5.9935,-6.0057,-6.006,-6.0063,-6.0065,0,-5.9769,-5.9752,-5.9792,-5.983,-5.9864,-5.989,-5.9912,-5.9941,-5.9896,-5.9934,-5.9988,-6.0016,-6.0071,-6.0119,-6.0154,-6.0156,-6.0104,-6.0097,-6.012,-6.0134,-6.0144,-6.0139,-5.9819,-6.009,-6.0087,-6.0085,-6.0084,-6.0083,-5.9952,-6.0006,-6.0015,-6.0063,-6.0075,-6.0097,-6.0146,-6.0134,-6.0178,-6.022,-6.0191,-6.0255,-6.0266,-6.0308,-6.0318,-6.0367,-6.0324,-6.0357,-6.0365,-6.0374,-6.0387,-6.0137,-6.0373,-6.0373,-6.0372,-6.0371,-6.0371,0,-6.0192,-6.0195,-6.024,-6.0273,-6.0311,-6.026,-6.0281,-6.0317,-6.0374,-6.0389,-6.0426,-6.0488,-6.0535,-6.0525,-6.0567,-6.0609,-6.0587,-6.0622,-6.0618,-6.062,-6.0422,-6.0398,-6.064,-6.064,-6.064,-6.064,-6.064,-6.064,-6.0322,-6.0411,-6.0396,-6.0491,-6.0492,-6.0554,-6.0571,-6.0592,-6.0604,-6.0676,-6.0715,-6.0708,-6.0714,-6.0757,-6.0798,-6.0794,-6.0812,-6.0857,-6.0844,-6.066,-6.0633,-6.0608,-6.0585,-6.0862,-6.0862,-6.1037,-6.1038,-6.1039]},{"header":{"parameterUnit":"m.s-1","parameterCategory":1,"la1":30.2991,"la2":30.254,"lo1":-89.0895,"lo2":-89.0444,"dy":0.0017,"dx":0.0017,"nx":28,"ny":28,"refTime":"2024-08-22T09:00:00:Z","depth":0,"parameterNumber":3,"parameterNumberName":"V-component_of_WINDS"},"data":[0,0,0,0,0,0,0,0,0,0,0,0,0,0,0,0,0,0,0,0,0,0,0,0,0,0,0,0,0,0,0,0,0,0,0,0,0,0,0,0,0,0,0,0,0,0,0,0,0,0,0,0,0,0,0,0,0,0,1.1068,1.1068,0,1.1056,1.1056,1.1056,1.1094,1.1095,1.1097,1.1098,1.1081,1.108,1.1078,0,0,0,0,0,0,0,0,0,0,0,0,0,1.1123,1.1122,1.1068,1.1068,1.1068,1.1056,1.1056,1.1056,1.1094,1.1096,1.1097,1.1098,1.1082,1.108,1.1078,0,0,0,0,0,0,0,0,0,0,0,0,0,1.1104,1.1121,1.1068,1.1086,1.1087,1.1056,1.1056,1.1055,1.1094,1.1096,1.1097,1.1099,1.1083,1.108,1.1078,1.1028,0,0,1.1071,1.107,0,0,0,0,0,0,0,0,1.1105,1.1102,1.1083,1.1085,1.1086,1.1079,1.1069,1.1046,1.1093,1.1091,1.1098,1.11,1.1079,1.1077,1.1071,1.1027,1.1027,1.1071,1.1069,1.1068,1.1068,0,0,0,0,0,0,0,1.1106,1.1102,1.1063,1.1083,1.1085,1.1094,1.1093,1.1065,1.1075,1.1091,1.1094,1.1093,1.108,1.1073,1.107,1.1026,1.1071,1.1069,1.1067,1.1066,1.0942,1.094,0,0,0,0,0,0,1.1105,1.1103,1.1064,1.1063,1.11,1.1091,1.109,1.1079,1.1075,1.1077,1.1091,1.1094,1.1076,1.1073,1.107,1.1011,1.1068,1.1066,1.1065,1.0944,1.0942,1.0939,0,0,0,0,0,0,1.1106,1.1102,1.1064,1.1084,1.108,1.1088,1.1075,1.1078,1.1071,1.1075,1.1077,1.1082,1.1077,1.1073,1.1039,1.1011,1.1065,1.1063,1.0946,1.0943,1.094,1.0893,0,0,0,0,0,0,1.1108,1.1102,1.1083,1.1083,1.1079,1.1033,1.1074,1.1076,1.1067,1.1071,1.1067,1.1068,1.1078,1.1042,1.1036,1.1009,1.1061,1.0949,1.0945,1.0941,1.0897,1.0888,1.0881,0,0,0,0,0,1.111,1.1069,1.1082,1.1077,1.1056,1.1032,1.1029,1.1042,1.1065,1.1046,1.1049,1.1068,1.1016,1.1038,1.1032,1.1003,1.095,1.0946,1.0942,1.09,1.089,1.0882,0,0,0,0,0,0,1.1064,1.1069,1.1084,1.1042,1.1036,1.1038,1.1015,1.1031,1.1018,1.1022,1.1039,1.1038,1.1,1.0999,1.1023,1.0955,1.0987,1.0981,1.0957,1.0948,1.094,1.094,1.1059,0,0,0,0,0,1.105,1.103,1.1036,1.0999,1.0995,1.1006,1.0996,1.1007,1.1001,1.0998,1.0999,1.0991,1.0973,1.0961,1.0944,1.0898,1.0897,1.0875,1.0868,1.0861,1.0855,1.0831,1.0821,1.0925,1.0925,1.0925,0,0,1.1018,1.1019,1.1006,1.099,1.0987,1.0966,1.1003,1.0979,1.0963,1.0994,1.0961,1.0962,1.0955,1.0914,1.0896,1.0911,1.0827,1.0856,1.0851,1.0848,1.0825,1.0815,1.0806,1.0922,1.0923,1.0923,0,0,1.0951,1.095,1.0919,1.0916,1.0911,1.0918,1.0911,1.0911,1.0912,1.0881,1.0903,1.0885,1.0853,1.0847,1.084,1.0773,1.079,1.0767,1.0726,1.0702,1.0694,1.0686,1.0661,1.0652,1.0762,1.0762,1.0761,0,1.0912,1.0883,1.0901,1.0876,1.0868,1.0897,1.0865,1.0861,1.085,1.0843,1.0862,1.0824,1.0821,1.0779,1.0763,1.0757,1.0748,1.0766,1.0694,1.0687,1.068,1.0656,1.0647,1.0759,1.0759,1.0759,1.076,0,1.0835,1.0814,1.079,1.0781,1.077,1.0742,1.0755,1.0742,1.0755,1.076,1.0727,1.0726,1.071,1.0701,1.0712,1.0661,1.0671,1.0691,1.0723,1.0667,1.0645,1.0636,1.0755,1.0756,1.0757,1.0757,0,0,1.0736,1.0739,1.0729,1.0726,1.0724,1.0707,1.0681,1.0667,1.0655,1.0647,1.0625,1.0598,1.0618,1.061,1.0621,1.06,1.0546,1.0623,1.0623,1.0608,1.0488,1.0471,1.0461,1.0558,1.0557,1.0556,1.0488,0,1.0669,1.0624,1.064,1.0594,1.0574,1.0603,1.0579,1.0575,1.058,1.0564,1.0569,1.055,1.0577,1.0573,1.0553,1.0557,1.0522,1.0562,1.0536,1.0535,1.0535,1.0449,1.0431,1.0368,1.048,1.0479,1.0477,0,1.0584,1.0574,1.0526,1.0529,1.0521,1.05,1.0488,1.0473,1.0469,1.0474,1.0466,1.0483,1.0456,1.0489,1.0452,1.0479,1.047,1.047,1.0468,1.0465,1.0501,1.0442,1.0348,1.0338,1.0464,1.0465,1.0466,0,1.0515,1.049,1.0458,1.0455,1.0457,1.0441,1.0441,1.0439,1.043,1.042,1.0414,1.04,1.0392,1.0382,1.0394,1.0417,1.0355,1.0389,1.0357,1.0357,1.0341,1.0341,1.0242,1.0337,1.0338,1.0338,1.0338,0,1.0437,1.0406,1.0428,1.0408,1.0374,1.0394,1.0359,1.0362,1.0361,1.0342,1.0366,1.0347,1.0365,1.0348,1.0358,1.0325,1.0322,1.0324,1.0327,1.0321,1.0321,1.0314,1.0318,1.0335,1.0336,1.0336,1.0337,0,1.0353,1.0366,1.0333,1.0339,1.034,1.0315,1.0319,1.03,1.0308,1.0283,1.0279,1.029,1.0271,1.0283,1.0264,1.0271,1.0228,1.0237,1.0229,1.0231,1.0198,1.02,1.0089,1.0076,1.0181,1.018,1.0179,0,1.0301,1.0279,1.0282,1.0272,1.0271,1.0253,1.0245,1.0263,1.0253,1.0248,1.023,1.0214,1.0201,1.017,1.0175,1.0161,1.0169,1.0132,1.0167,1.0162,1.0167,1.0168,1.0165,1.0124,1.0122,1.0121,1.0121,0,1.0208,1.0216,1.0203,1.0193,1.0182,1.0174,1.0168,1.0158,1.0177,1.0164,1.0146,1.0137,1.0118,1.0101,1.0089,1.0089,1.0107,1.011,1.0102,1.0094,1.009,1.0091,1.0208,1.0112,1.0113,1.0113,1.0114,1.0114,1.0138,1.0119,1.0119,1.0104,1.0102,1.0096,1.0079,1.0086,1.0071,1.0058,1.007,1.0048,1.0046,1.0032,1.003,1.0012,1.0027,1.0015,1.0012,1.0008,1.0003,1.0095,1.001,1.0011,1.0011,1.0011,1.0011,0,1.0045,1.0047,1.0033,1.0025,1.0013,1.0034,1.0029,1.0017,0.9998,0.9995,0.9983,0.9962,0.9946,0.9952,0.9938,0.9923,0.9931,0.9918,0.9919,0.9918,0.9991,0.9999,0.9912,0.9912,0.9912,0.9912,0.9912,0.9912,0.9995,0.9964,0.9973,0.9941,0.9943,0.9923,0.9918,0.9913,0.9911,0.9887,0.9875,0.9879,0.9879,0.9866,0.9852,0.9854,0.9847,0.9831,0.9836,0.9903,0.9913,0.9922,0.993,0.983,0.983,0.9765,0.9764,0.9764]}]]